Weather History for KJMR - June, 2014

Change the Weather History Date:

Monday, June 2, 2014

  Actual Average Record
Temperature  
Mean Temperature 65 °F -  
Max Temperature 75 °F 74 °F 91 °F (1940)
Min Temperature 55 °F 44 °F 32 °F (1946)
Growing Degree Days 15 (Base 50)    
Moisture  
Dew Point 57 °F    
Average Humidity 78    
Maximum Humidity 100    
Minimum Humidity 53    
Precipitation  
Precipitation 0.61 in - - ()
Sea Level Pressure  
Sea Level Pressure 29.69 in    
Wind  
Wind Speed 8 mph (WSW)    
Max Wind Speed 23 mph    
Max Gust Speed 37 mph    
Visibility 9 miles    
Events Rain , Thunderstorm    
Averages and records for this station are not official NWS values.
T = Trace of Precipitation, MM = Missing Value Source: NWS Daily Summary

Daily Weather History Graph

Daily Weather History Graph

Search for Another Location

Airport or City:

Trip Planner

Search our weather history database for the weather conditions in past years. The results will help you decide how hot, cold, wet, or windy it might be!

Date:

Astronomy

Jun. 02, 2014 Rise Set
Actual Time 5:25 AM CDT 8:56 PM CDT
Civil Twilight 4:48 AM CDT 9:34 PM CDT
Nautical Twilight 3:58 AM CDT 10:24 PM CDT
Astronomical Twilight 2:54 AM CDT 11:29 PM CDT
Moon 10:02 AM CDT (6/2) No Moon Set
Length of Visible Light 16h 46m
Length of Day
15h 31m
Waxing Crescent, 22% of the Moon is Illuminated
Jun 2
Waxing Crescent
Jun 5
First Quarter
Jun 12
Full
Jun 19
Last Quarter
Jun 27
New

Hourly Weather History & Observations

Time (CDT) Temp. Dew Point Humidity Pressure Visibility Wind Dir Wind Speed Gust Speed Precip Events Conditions
12:14 AM 64.4 °F 62.6 °F 94% 29.73 in 10.0 mi South 4.6 mph - 0.03 in Rain Rain
12:34 AM 64.4 °F 62.6 °F 94% 29.73 in 10.0 mi South 4.6 mph - 0.03 in   Overcast
12:54 AM 64.4 °F 62.6 °F 94% 29.74 in 10.0 mi South 4.6 mph - 0.03 in   Overcast
1:14 AM 64.4 °F 62.6 °F 94% 29.73 in 10.0 mi South 3.5 mph - N/A   Overcast
1:34 AM 64.4 °F 62.6 °F 94% 29.73 in 10.0 mi South 3.5 mph - N/A   Overcast
1:54 AM 64.4 °F 62.6 °F 94% 29.72 in 10.0 mi South 6.9 mph - N/A   Overcast
2:14 AM 62.6 °F 60.8 °F 94% 29.71 in 10.0 mi SSW 6.9 mph - N/A Rain Rain
2:34 AM 62.6 °F 60.8 °F 94% 29.71 in 10.0 mi South 5.8 mph - N/A Rain Light Rain
2:54 AM 60.8 °F 59.0 °F 94% 29.71 in 10.0 mi SSW 3.5 mph - 0.01 in   Drizzle
3:14 AM 62.6 °F 60.8 °F 94% 29.70 in 5.0 mi SSW 5.8 mph - 0.03 in Rain Rain
3:34 AM 62.6 °F 60.8 °F 94% 29.70 in 5.0 mi SSW 6.9 mph - 0.06 in Rain Rain
3:54 AM 62.6 °F 60.8 °F 94% 29.70 in 4.0 mi SSW 5.8 mph - 0.16 in Rain Heavy Rain
4:14 AM 62.6 °F 60.8 °F 94% 29.69 in 5.0 mi South 3.5 mph - 0.06 in Rain Heavy Rain
4:34 AM 62.6 °F 60.8 °F 94% 29.69 in 5.0 mi SSW 3.5 mph - 0.12 in Rain Rain
4:54 AM 62.6 °F 60.8 °F 94% 29.68 in 5.0 mi Calm Calm - 0.15 in Rain Rain
5:14 AM 60.8 °F 59.0 °F 94% 29.68 in 4.0 mi South 3.5 mph - 0.09 in Rain Heavy Rain
5:34 AM 60.8 °F 59.0 °F 94% 29.68 in 7.0 mi Calm Calm - 0.15 in Rain Rain
5:54 AM 60.8 °F 59.0 °F 94% 29.69 in 7.0 mi Calm Calm - 0.17 in Rain Rain
6:14 AM 60.8 °F 59.0 °F 94% 29.68 in 7.0 mi SSW 5.8 mph - 0.03 in Rain Rain
6:34 AM 59.0 °F 59.0 °F 100% 29.68 in 5.0 mi SW 4.6 mph - 0.07 in Rain Rain
6:54 AM 59.0 °F 57.2 °F 94% 29.68 in 10.0 mi SW 5.8 mph - 0.08 in Rain Rain
7:14 AM 59.0 °F 57.2 °F 94% 29.68 in 10.0 mi SW 5.8 mph - N/A Rain Light Rain
7:34 AM 59.0 °F 57.2 °F 94% 29.68 in 10.0 mi Calm Calm - 0.01 in Rain Light Rain
7:54 AM 59.0 °F 57.2 °F 94% 29.67 in 10.0 mi SW 4.6 mph - 0.01 in   Overcast
8:14 AM 60.8 °F 59.0 °F 94% 29.68 in 10.0 mi SW 3.5 mph - N/A   Overcast
8:34 AM 60.8 °F 59.0 °F 94% 29.68 in 10.0 mi WSW 4.6 mph - N/A   Overcast
8:54 AM 62.6 °F 60.8 °F 94% 29.68 in 10.0 mi West 4.6 mph - N/A   Overcast
9:14 AM 64.4 °F 62.6 °F 94% 29.67 in 10.0 mi WSW 3.5 mph - N/A   Overcast
9:34 AM 64.4 °F 62.6 °F 94% 29.67 in 10.0 mi West 4.6 mph - N/A   Overcast
9:54 AM 64.4 °F 62.6 °F 94% 29.67 in 10.0 mi SW 3.5 mph - N/A   Overcast
10:14 AM 64.4 °F 62.6 °F 94% 29.67 in 10.0 mi SW 5.8 mph - N/A   Overcast
10:34 AM 64.4 °F 60.8 °F 88% 29.67 in 10.0 mi WSW 8.1 mph - N/A   Overcast
10:54 AM 69.8 °F 64.4 °F 83% 29.66 in 10.0 mi WSW 8.1 mph - N/A   Overcast
11:14 AM 69.8 °F 62.6 °F 78% 29.66 in 10.0 mi WSW 6.9 mph - N/A   Overcast
12:14 PM 73.4 °F 62.6 °F 69% 29.66 in 10.0 mi WSW 8.1 mph 19.6 mph N/A   Mostly Cloudy
12:34 PM 73.4 °F 60.8 °F 65% 29.66 in 10.0 mi WSW 11.5 mph 18.4 mph N/A   Mostly Cloudy
1:14 PM 73.4 °F 60.8 °F 65% 29.65 in 10.0 mi WSW 13.8 mph 24.2 mph N/A   Mostly Cloudy
1:34 PM 69.8 °F 57.2 °F 64% 29.65 in 10.0 mi WNW 9.2 mph 26.5 mph N/A Thunderstorm Mostly Cloudy
1:54 PM 73.4 °F 59.0 °F 61% 29.63 in 10.0 mi West 8.1 mph - N/A   Mostly Cloudy
2:14 PM 75.2 °F 59.0 °F 57% 29.63 in 10.0 mi West 16.1 mph 24.2 mph N/A   Scattered Clouds
2:34 PM 75.2 °F 57.2 °F 53% 29.63 in 10.0 mi WSW 20.7 mph 26.5 mph N/A   Scattered Clouds
2:54 PM 73.4 °F 55.4 °F 53% 29.64 in 10.0 mi West 17.3 mph 28.8 mph N/A   Scattered Clouds
3:14 PM 73.4 °F 55.4 °F 53% 29.63 in 10.0 mi West 18.4 mph 28.8 mph N/A   Scattered Clouds
3:34 PM 73.4 °F 55.4 °F 53% 29.64 in 10.0 mi West 21.9 mph 31.1 mph N/A   Scattered Clouds
3:54 PM 73.4 °F 55.4 °F 53% 29.64 in 10.0 mi West 18.4 mph 28.8 mph N/A   Clear
4:14 PM 71.6 °F 55.4 °F 57% 29.65 in 10.0 mi West 16.1 mph 31.1 mph N/A   Scattered Clouds
4:34 PM 71.6 °F 55.4 °F 57% 29.64 in 10.0 mi WSW 17.3 mph 27.6 mph N/A   Mostly Cloudy
4:54 PM 73.4 °F 55.4 °F 53% 29.64 in 10.0 mi WSW 17.3 mph 25.3 mph N/A   Scattered Clouds
5:14 PM 71.6 °F 55.4 °F 57% 29.65 in 10.0 mi WSW 15.0 mph 24.2 mph N/A   Scattered Clouds
5:34 PM 71.6 °F 57.2 °F 60% 29.65 in 10.0 mi West 12.7 mph 29.9 mph N/A   Mostly Cloudy
5:54 PM 69.8 °F 53.6 °F 56% 29.65 in 10.0 mi West 23.0 mph 36.8 mph N/A   Scattered Clouds
6:14 PM 69.8 °F 55.4 °F 60% 29.65 in 10.0 mi West 18.4 mph 27.6 mph N/A   Scattered Clouds
6:34 PM 66.2 °F 53.6 °F 64% 29.66 in 10.0 mi West 16.1 mph 28.8 mph N/A   Overcast
6:54 PM 64.4 °F 53.6 °F 68% 29.66 in 10.0 mi West 17.3 mph 28.8 mph N/A   Overcast
7:14 PM 64.4 °F 53.6 °F 68% 29.67 in 10.0 mi West 21.9 mph 28.8 mph N/A   Overcast
7:34 PM 62.6 °F 51.8 °F 68% 29.69 in 10.0 mi West 17.3 mph 23.0 mph N/A   Overcast
7:54 PM 62.6 °F 51.8 °F 68% 29.70 in 10.0 mi West 11.5 mph 20.7 mph N/A   Overcast
8:14 PM 60.8 °F 51.8 °F 72% 29.71 in 10.0 mi West 15.0 mph 25.3 mph N/A   Overcast
8:34 PM 60.8 °F 51.8 °F 72% 29.72 in 10.0 mi West 13.8 mph 23.0 mph N/A   Overcast
8:54 PM 59.0 °F 50.0 °F 72% 29.72 in 10.0 mi WNW 15.0 mph 23.0 mph N/A   Overcast
9:14 PM 59.0 °F 50.0 °F 72% 29.73 in 10.0 mi West 17.3 mph 26.5 mph N/A   Overcast
9:34 PM 59.0 °F 48.2 °F 67% 29.76 in 10.0 mi WNW 12.7 mph 25.3 mph N/A   Overcast
9:54 PM 59.0 °F 48.2 °F 67% 29.77 in 10.0 mi WNW 12.7 mph 27.6 mph N/A   Overcast
10:14 PM 59.0 °F 48.2 °F 67% 29.78 in 10.0 mi WNW 11.5 mph 24.2 mph N/A   Overcast
10:34 PM 59.0 °F 46.4 °F 63% 29.79 in 10.0 mi WNW 16.1 mph 27.6 mph N/A   Overcast
10:54 PM 59.0 °F 46.4 °F 63% 29.79 in 10.0 mi WNW 15.0 mph 23.0 mph N/A   Overcast
11:13 PM 59.0 °F 46.4 °F 63% 29.80 in 10.0 mi WNW 11.5 mph 19.6 mph N/A   Overcast
11:34 PM 55.4 °F 46.4 °F 72% 29.81 in 10.0 mi WNW 13.8 mph 21.9 mph N/A   Mostly Cloudy
11:54 PM 55.4 °F 44.6 °F 67% 29.81 in 10.0 mi WNW 13.8 mph 19.6 mph N/A   Scattered Clouds